[[[{"header":{"parameterUnit":"kt","parameterCategory":2,"dx":1,"dy":1,"la1":30.253999710083008,"la2":30.299108505249023,"lo1":-89.0895004272461,"lo2":-89.04439544677734,"nx":28,"ny":28,"refTime":"2022-10-04T21:00:00:Z","depth":"0","parameterNumber":2,"parameterNumberName":"U-component_of_CURRENTS"},"data":[0.591,0.5809,0.5821,0.5624,0.5602,0.5512,0.5566,0.5745,0.6065,0.6574,0.7057,0.7541,0.8431,0.925,0.9518,0.9544,0.8792,0.8559,0.8217,0.8987,0.9023,0.9057,0.8916,0.8708,0.8706,0.6788,0.6774,0.6763,0.6071,0.607,0.6057,0.6022,0.5954,0.607,0.6198,0.6238,0.6459,0.694,0.7307,0.823,0.8958,0.9681,1.0459,1.0316,0.9956,0.9989,0.9197,0.9039,1.0224,1.0135,1.0182,1.0182,1.0183,1.0183,1.0184,1.0184,0.6356,0.6317,0.6373,0.6335,0.6364,0.638,0.6369,0.66,0.6802,0.7141,0.7583,0.8075,0.8977,1.009,1.0409,1.0757,1.0488,1.0582,1.0463,1.0001,0.9693,1.0921,1.1259,1.1259,1.1259,1.126,1.126,0,0.6559,0.6611,0.664,0.6633,0.6659,0.6677,0.6793,0.6859,0.7206,0.7415,0.7784,0.8111,0.8944,0.9535,1.031,1.0705,1.0311,1.0903,1.0414,1.0134,0.9522,0.9318,1.0507,1.0802,1.08,1.0798,1.0797,1.0796,0.6798,0.6791,0.6898,0.689,0.6952,0.6987,0.7038,0.7292,0.7396,0.7772,0.7851,0.8305,0.8698,0.9474,1.0035,1.0595,1.0238,1.0832,1.0747,1.0227,1.0101,0.9595,0.9383,1.077,1.0774,1.0776,1.0778,0,0.6922,0.7048,0.7048,0.7204,0.7235,0.7228,0.7383,0.7439,0.7673,0.7821,0.7901,0.8316,0.8765,0.9173,0.9693,0.9937,1.0104,1.0512,1.0387,1.0433,1.0207,1.0055,0.9703,0.9471,1.0793,1.0798,1.0802,0,0.7168,0.7149,0.7327,0.733,0.7329,0.7509,0.7541,0.7703,0.7904,0.8023,0.829,0.8444,0.885,0.9165,0.9465,0.9924,0.9914,1.0188,1.0249,1.0181,1.018,0.9872,0.9715,1.0162,1.0161,1.0159,1.0158,0,0.7301,0.7421,0.7426,0.7466,0.7646,0.7673,0.7765,0.7966,0.8045,0.8284,0.8364,0.8649,0.8801,0.9095,0.9477,0.942,0.9892,0.9846,1.0141,1.0146,1.0218,1.0223,0.9955,1.0155,1.0155,1.0154,1.0154,0,0.7515,0.7584,0.7609,0.7727,0.7757,0.7802,0.7923,0.8015,0.8236,0.8353,0.8529,0.8687,0.8902,0.8987,0.9371,0.9268,0.9485,0.9637,0.965,0.981,0.9813,0.9935,1.009,0.9634,0.9755,0.9751,0.9748,0,0.7596,0.767,0.7804,0.7827,0.7865,0.8021,0.8096,0.8231,0.8356,0.8469,0.8654,0.8796,0.8915,0.8981,0.912,0.9338,0.9463,0.9323,0.9644,0.9653,0.9715,0.9857,0.9821,1.0028,0.9704,0.9709,0.9712,0,0.767,0.7878,0.7875,0.7911,0.8081,0.8129,0.8211,0.8347,0.8399,0.8547,0.8621,0.8836,0.8941,0.9018,0.9118,0.9225,0.939,0.9285,0.9295,0.9337,0.9673,0.9779,0.9819,0.9445,0.945,0.9454,0.9677,0,0.7852,0.7909,0.7928,0.8066,0.8138,0.8181,0.8336,0.8399,0.8474,0.8581,0.8727,0.8872,0.9012,0.9054,0.912,0.9257,0.9269,0.9308,0.9277,0.9334,0.9421,0.9448,0.9152,0.9153,0.9154,0.9155,0,0,0.7873,0.7959,0.8105,0.8167,0.8219,0.8368,0.8398,0.848,0.862,0.8668,0.8697,0.8922,0.9009,0.9123,0.9162,0.9193,0.9263,0.9124,0.9296,0.9311,0.9325,0.9411,0.9435,0.9157,0.9158,0.9158,0.9159,0,0.796,0.8048,0.8088,0.8179,0.8317,0.8404,0.8423,0.8563,0.8614,0.869,0.8795,0.8906,0.899,0.9091,0.9146,0.9196,0.9246,0.9209,0.9153,0.93,0.9313,0.9326,0.9411,0.9433,0.9161,0.9161,0.9161,0,0.8035,0.8146,0.8174,0.8333,0.8407,0.8475,0.8559,0.8625,0.8669,0.8758,0.8807,0.8912,0.9016,0.9083,0.9116,0.9089,0.9213,0.9139,0.9136,0.9153,0.9308,0.9323,0.9336,0.9167,0.9166,0.9166,0,0,0.8097,0.816,0.833,0.8361,0.8415,0.8531,0.8577,0.8642,0.8731,0.8759,0.8824,0.8898,0.8995,0.9006,0.91,0.9111,0.9193,0.9132,0.9132,0.9131,0.9147,0.9301,0.9315,0.9163,0.9163,0.9163,0,0,0.8121,0.8306,0.8353,0.841,0.8519,0.8653,0.8666,0.8726,0.8789,0.8779,0.8861,0.888,0.8966,0.899,0.895,0.9063,0.9076,0.9084,0.9,0.9,0.9,0.9,0.8974,0,0,0,0,0,0.8279,0.8289,0.833,0.836,0.8515,0.863,0.8649,0.8738,0.8746,0.8765,0.8833,0.8844,0.9009,0.8974,0.8984,0.8984,0.9128,0.9134,0.914,0.9043,0.9044,0.9044,0,0,0,0,0,0,0.8292,0.8325,0.8332,0.8465,0.8502,0.8629,0.8672,0.8695,0.8747,0.8757,0.8832,0.8846,0.8897,0.897,0.8979,0.8978,0.8971,0.9131,0.9136,0.9141,0.9043,0.9044,0.9044,0,0,0,0,0,0.8302,0.833,0.8558,0.8464,0.8497,0.8625,0.8672,0.8692,0.872,0.8818,0.8834,0.879,0.8894,0.8907,0.8975,0.8974,0.8965,0.8968,0.9134,0.9138,0.9142,0.9043,0,0,0,0,0,0,0.831,0.8324,0.8566,0.858,0.8476,0.862,0.8645,0.8688,0.8778,0.8797,0.8779,0.8785,0.8893,0.8902,0.8911,0.8971,0.8961,0.8964,0.8966,0.9137,0.914,0.9143,0,0,0,0,0,0,0.8312,0.8334,0.8572,0.8582,0.8596,0.8615,0.8638,0.8665,0.8776,0.873,0.8741,0.878,0.888,0.8899,0.8907,0.8945,0.8957,0.896,0.8962,0.8964,0.914,0.9142,0,0,0,0,0,0,0.8323,0.8342,0.8578,0.8589,0.8602,0.8745,0.8638,0.8783,0.8812,0.8722,0.8816,0.8818,0.8875,0.8884,0.8903,0.8938,0.8943,0.8957,0.8959,0.8961,0.8962,0,0,0,0,0,0,0,0.8331,0.8183,0.8504,0.8595,0.8606,0.8704,0.8706,0.8708,0.8812,0.8814,0.8816,0.8817,0.894,0.8943,0.8947,0.8932,0,0,0.8957,0.8958,0,0,0,0,0,0,0,0,0.8177,0.8181,0.8504,0.8508,0.8511,0.8705,0.8706,0.8708,0.8813,0.8814,0.8815,0.8817,0.8941,0.8944,0.8946,0,0,0,0,0,0,0,0,0,0,0,0,0,0,0,0.8505,0.8508,0,0.8705,0.8706,0.8708,0.8813,0.8814,0.8815,0.8816,0.8942,0.8944,0.8946,0,0,0,0,0,0,0,0,0,0,0,0,0,0,0,0,0,0,0,0,0,0,0,0,0,0,0,0,0,0,0,0,0,0,0,0,0,0,0,0,0,0,0,0,0,0,0,0,0,0,0,0,0,0,0,0,0,0,0,0,0,0,0,0,0,0,0,0,0]}],[{"header":{"parameterUnit":"kt","parameterCategory":2,"dx":1,"dy":1,"la1":30.253999710083008,"la2":30.299108505249023,"lo1":-89.0895004272461,"lo2":-89.04439544677734,"nx":28,"ny":28,"refTime":"2022-10-04T21:00:00:Z","depth":"0","parameterNumber":3,"parameterNumberName":"V-component_of_CURRENTS"},"data":[0.0914,0.1126,0.1225,0.163,0.1819,0.2135,0.2316,0.2636,0.3003,0.3751,0.4299,0.4658,0.457,0.2069,0.0222,-0.0424,-0.1227,-0.1235,-0.1834,-0.1188,-0.1151,-0.1117,-0.1132,-0.1495,-0.1497,-0.2478,-0.249,-0.2498,0.0801,0.0944,0.115,0.1413,0.1649,0.1714,0.2011,0.2215,0.2557,0.2988,0.3226,0.3608,0.2942,0.2184,0.1074,0.0178,-0.0173,-0.0356,-0.0441,-0.0667,0.0274,0.0324,0.0267,0.0267,0.0267,0.0268,0.0268,0.0268,0.0651,0.0769,0.0943,0.1149,0.1351,0.1598,0.1776,0.1986,0.2247,0.2571,0.2533,0.2849,0.2544,0.198,0.1345,0.0508,0.0371,0.0289,-0.0038,-0.0093,-0.0329,0.0686,0.0678,0.0675,0.0673,0.0671,0.0669,0,0.0546,0.06,0.0734,0.0949,0.1117,0.1321,0.1511,0.1636,0.1783,0.1941,0.2121,0.2193,0.1926,0.1772,0.1276,0.0977,0.0287,0.0567,0.0137,0.008,-0.001,-0.0315,0.068,0.0733,0.0731,0.0729,0.0728,0.0727,0.0437,0.0507,0.069,0.0807,0.0885,0.1058,0.121,0.1316,0.1457,0.1622,0.1713,0.1678,0.1748,0.14,0.1048,0.0698,0.0311,0.053,0.0511,0.0113,-0.0257,-0.0346,-0.0571,0.0701,0.0704,0.0707,0.0709,0,0.0402,0.0449,0.059,0.0738,0.0797,0.0916,0.1117,0.1258,0.1318,0.1494,0.1507,0.1502,0.1413,0.1186,0.0955,0.0725,0.033,0.042,0.0633,0.0602,0.0095,-0.0196,-0.0443,-0.0719,0.0227,0.0226,0.0226,0,0.0357,0.0446,0.0542,0.0609,0.0773,0.0827,0.1008,0.1078,0.1187,0.1334,0.1258,0.1339,0.1125,0.1035,0.0827,0.0627,0.065,0.0427,0.0368,0.0552,0.0562,0.0194,-0.0098,0.0433,0.0435,0.0436,0.0437,0,0.0296,0.0416,0.0515,0.0556,0.0693,0.0765,0.0843,0.0954,0.1049,0.1104,0.1156,0.1115,0.1098,0.0945,0.0766,0.0733,0.0621,0.0544,0.0388,0.0382,0.0509,0.0514,0.0227,0.0438,0.0438,0.0439,0.0439,0,0.0259,0.0322,0.0436,0.0569,0.0597,0.0674,0.0813,0.0886,0.0965,0.0977,0.0988,0.0946,0.0943,0.0831,0.0721,0.074,0.0598,0.0515,0.0506,0.0462,0.0361,0.0422,0.0528,0.0147,0.0347,0.0347,0.0347,0,0.0202,0.0297,0.0315,0.0438,0.0494,0.0514,0.0604,0.0663,0.0692,0.0751,0.0719,0.0763,0.0674,0.0676,0.0652,0.0582,0.0536,0.057,0.0378,0.0372,0.0344,0.0424,0.063,0.0526,0.0351,0.0351,0.035,0,0.0142,0.0203,0.0213,0.0264,0.0303,0.0339,0.042,0.0483,0.0553,0.053,0.0598,0.0629,0.0577,0.0592,0.0554,0.0541,0.0531,0.0457,0.0453,0.0382,0.0437,0.0425,0.0421,0.0493,0.0495,0.0495,0.0353,0,0.0121,0.0153,0.0172,0.0208,0.0233,0.0268,0.0281,0.0309,0.0296,0.0303,0.036,0.0336,0.0363,0.0372,0.0353,0.0419,0.0353,0.032,0.0257,0.034,0.0262,0.0261,0.0246,0.0244,0.0242,0.024,0,0,0.0056,0.0081,0.0047,0.0081,0.0103,0.006,0.011,0.0122,0.0116,0.014,0.0091,0.0146,0.0139,0.0231,0.0266,0.0253,0.0202,0.0248,0.0305,0.0313,0.032,0.0251,0.0251,0.0237,0.0236,0.0236,0.0235,0,0.0034,0.0016,0.0037,0.0045,0.0035,0.0031,0.0035,0.0014,0.0014,0.0055,0.0026,0.0046,0.0077,0.01,0.0117,0.022,0.0141,0.0223,0.0315,0.029,0.03,0.0308,0.0243,0.0245,0.0231,0.0231,0.0231,0,-0.0013,-0.0029,-0.0027,-0.0036,-0.0049,-0.0015,-0.0088,-0.0082,-0.0044,-0.0113,-0.0065,-0.0077,-0.0067,-0.0004,0.0018,-0.0012,0.0068,0.0065,0.0075,0.0092,0.0062,0.0075,0.0086,-0.0064,-0.0065,-0.0065,0,0,-0.0032,-0.0028,-0.0056,-0.0046,-0.0049,-0.0083,-0.0088,-0.0106,-0.0114,-0.0117,-0.0129,-0.0123,-0.0092,-0.0079,-0.0062,-0.0009,-0.0055,0.0032,0.0046,0.0057,0.0081,0.0055,0.0067,-0.0068,-0.0068,-0.0068,0,0,-0.0045,-0.0075,-0.0094,-0.0085,-0.0094,-0.0125,-0.0116,-0.0145,-0.0142,-0.0145,-0.0174,-0.0175,-0.0123,-0.0138,-0.0172,-0.007,-0.013,-0.0124,-0.0053,-0.0036,-0.0023,0.0002,-0.0218,0,0,0,0,0,-0.0089,-0.007,-0.0087,-0.0091,-0.0116,-0.0115,-0.0118,-0.0151,-0.0183,-0.0168,-0.0176,-0.0206,-0.0152,-0.0184,-0.0181,-0.0124,-0.0104,-0.0098,-0.0092,0.0011,0.0029,0.0044,0,0,0,0,0,0,-0.0091,-0.0095,-0.0088,-0.0118,-0.0124,-0.0116,-0.0164,-0.0172,-0.0185,-0.019,-0.0203,-0.0206,-0.0219,-0.0187,-0.0184,-0.0129,-0.0219,-0.0102,-0.0096,-0.0091,0.0017,0.0032,0.0045,0,0,0,0,0,-0.0092,-0.0096,-0.0127,-0.0118,-0.0124,-0.0164,-0.0165,-0.0172,-0.0181,-0.02,-0.0204,-0.0207,-0.0218,-0.0217,-0.0185,-0.0128,-0.0221,-0.022,-0.0098,-0.0094,-0.009,0.0025,0,0,0,0,0,0,-0.0094,-0.0098,-0.0129,-0.0132,-0.0131,-0.0164,-0.017,-0.0172,-0.019,-0.0195,-0.0204,-0.0208,-0.0216,-0.0216,-0.0215,-0.0126,-0.0222,-0.0221,-0.022,-0.0095,-0.0091,-0.0089,0,0,0,0,0,0,-0.0097,-0.01,-0.0131,-0.0145,-0.015,-0.0165,-0.017,-0.0154,-0.0189,-0.0193,-0.0197,-0.0206,-0.0213,-0.0215,-0.0215,-0.019,-0.0223,-0.0222,-0.0222,-0.0221,-0.0092,-0.0089,0,0,0,0,0,0,-0.0099,-0.0101,-0.0144,-0.0148,-0.0152,-0.0187,-0.0151,-0.017,-0.0216,-0.019,-0.022,-0.0222,-0.0211,-0.0212,-0.0214,-0.0189,-0.0189,-0.0223,-0.0223,-0.0222,-0.0222,0,0,0,0,0,0,0,-0.01,-0.0073,-0.0114,-0.015,-0.0154,-0.0161,-0.0162,-0.0162,-0.0216,-0.0218,-0.022,-0.0221,-0.0229,-0.0228,-0.0227,-0.0189,0,0,-0.0223,-0.0223,0,0,0,0,0,0,0,0,-0.0073,-0.0073,-0.0114,-0.0115,-0.0116,-0.0161,-0.0162,-0.0162,-0.0217,-0.0218,-0.0219,-0.022,-0.0229,-0.0228,-0.0227,0,0,0,0,0,0,0,0,0,0,0,0,0,0,0,-0.0114,-0.0115,0,-0.0161,-0.0162,-0.0162,-0.0217,-0.0218,-0.0219,-0.022,-0.0228,-0.0228,-0.0227,0,0,0,0,0,0,0,0,0,0,0,0,0,0,0,0,0,0,0,0,0,0,0,0,0,0,0,0,0,0,0,0,0,0,0,0,0,0,0,0,0,0,0,0,0,0,0,0,0,0,0,0,0,0,0,0,0,0,0,0,0,0,0,0,0,0,0,0,0]}]],[[{"header":{"parameterUnit":"kt","parameterCategory":2,"dx":1,"dy":1,"la1":30.253999710083008,"la2":30.299108505249023,"lo1":-89.0895004272461,"lo2":-89.04439544677734,"nx":28,"ny":28,"refTime":"2022-10-04T21:00:00:Z","depth":"2","parameterNumber":2,"parameterNumberName":"U-component_of_CURRENTS"},"data":[0.4388,0.4366,0.4369,0.4276,0.4306,0.4246,0.4254,0.4193,0.4157,0.3814,0.361,0.3672,0.3997,0.3278,0.3251,0.3063,0.3531,0.2923,0.4469,0.4453,0.4566,0.4903,0.4376,0,0,0,0,0,0.4439,0.4472,0.4507,0.4541,0.4514,0.4644,0.4738,0.4688,0.4791,0.4822,0.4906,0.4339,0.4215,0.4459,0.4009,0.3967,0.3893,0.4003,0.3899,0.4026,0.4142,0.3718,0.2883,0.2879,0.2876,0.2873,0,0,0.4537,0.4554,0.4613,0.4683,0.4754,0.4795,0.4822,0.5009,0.5195,0.5351,0.5704,0.5696,0.5734,0.5406,0.541,0.5354,0.5713,0.5517,0.5562,0.5624,0.5274,0.5038,0.4849,0.4858,0.4866,0.4873,0.4879,0,0.4598,0.4649,0.4704,0.4789,0.488,0.4972,0.5144,0.5238,0.5569,0.581,0.6136,0.6323,0.6571,0.6339,0.6463,0.6424,0.6616,0.6416,0.7607,0.5798,0.5572,0.5537,0.5562,0.5543,0.5556,0.5566,0.5573,0.5579,0.4647,0.4688,0.4836,0.4879,0.4955,0.5104,0.5201,0.5472,0.5608,0.6094,0.6206,0.6661,0.6852,0.7278,0.7145,0.7271,0.7649,0.6738,0.6348,0.7178,0.7149,0.7118,0.7087,0.5724,0.5706,0.5691,0.5678,0,0.4668,0.4744,0.4843,0.5008,0.5068,0.5164,0.5397,0.5521,0.5791,0.6036,0.6136,0.6547,0.6913,0.7182,0.7562,0.7457,0.7625,0.7617,0.6841,0.6733,0.7154,0.7113,0.7441,0.7432,0.7424,0.7418,0.7413,0,0.4714,0.4788,0.4905,0.495,0.5085,0.5221,0.54,0.5561,0.5811,0.5987,0.6211,0.6417,0.6711,0.7008,0.7142,0.7303,0.757,0.7188,0.7188,0.6556,0.6468,0.7264,0.722,0.7606,0.7603,0.76,0.7597,0,0.4693,0.4829,0.491,0.4961,0.5125,0.5229,0.534,0.5562,0.5698,0.5964,0.611,0.6392,0.6574,0.6797,0.7007,0.691,0.7413,0.729,0.7113,0.7091,0.6538,0.6448,0.7593,0.7593,0.7592,0.759,0.7589,0,0.472,0.4778,0.4879,0.5035,0.5081,0.5158,0.5383,0.5491,0.5727,0.584,0.6048,0.614,0.6392,0.6318,0.6723,0.6589,0.6726,0.6803,0.682,0.6474,0.6345,0.6013,0.611,0.6956,0.695,0.6944,0.6939,0,0.4688,0.4774,0.4828,0.4945,0.5012,0.5122,0.5233,0.537,0.5497,0.5666,0.5795,0.5945,0.594,0.6028,0.6182,0.6317,0.6491,0.6255,0.6605,0.6616,0.6272,0.6489,0.5775,0.6055,0.6864,0.6872,0.6877,0,0.4647,0.4747,0.4763,0.4827,0.4942,0.4989,0.5118,0.5258,0.5376,0.5487,0.5658,0.5785,0.5861,0.5908,0.594,0.607,0.6363,0.6064,0.607,0.6218,0.6785,0.6429,0.6446,0.6384,0.6393,0.6399,0.6818,0,0.4655,0.4709,0.4742,0.4823,0.488,0.4951,0.5025,0.5117,0.5193,0.5259,0.545,0.5508,0.5648,0.5665,0.5661,0.5888,0.5901,0.5854,0.5794,0.5964,0.612,0.6167,0.5573,0.557,0.5568,0.5566,0,0,0.4621,0.4661,0.4691,0.4743,0.4799,0.485,0.4915,0.4966,0.506,0.5143,0.5131,0.5338,0.536,0.552,0.5572,0.5571,0.5678,0.5559,0.5855,0.5887,0.5916,0.6074,0.6122,0.5563,0.5562,0.5561,0.556,0,0.4606,0.4643,0.4672,0.4718,0.4794,0.482,0.4853,0.4918,0.4973,0.5075,0.5103,0.5211,0.5286,0.5346,0.538,0.553,0.5564,0.5545,0.5654,0.583,0.5865,0.5896,0.6058,0.6102,0.5555,0.5556,0.5556,0,0.459,0.4617,0.4629,0.4682,0.4725,0.4773,0.4774,0.484,0.4898,0.4895,0.5006,0.5054,0.5095,0.5198,0.5248,0.5209,0.5475,0.5331,0.5343,0.5361,0.554,0.5579,0.5614,0.5169,0.5168,0.5167,0,0,0.4589,0.4612,0.465,0.468,0.471,0.4753,0.4783,0.4811,0.4862,0.4894,0.4933,0.4991,0.5055,0.5096,0.5138,0.5226,0.5294,0.5285,0.5303,0.5318,0.5344,0.5526,0.5563,0.5163,0.5163,0.5162,0,0,0.4581,0.4612,0.4633,0.4659,0.4706,0.473,0.4768,0.4792,0.4859,0.4885,0.4892,0.4904,0.5016,0.5012,0.4955,0.5122,0.5046,0.5058,0.5125,0.5147,0.5165,0.5184,0.4895,0,0,0,0,0,0.459,0.4605,0.4624,0.4633,0.4678,0.472,0.4728,0.476,0.4782,0.4814,0.487,0.4841,0.4992,0.494,0.4948,0.5023,0.5105,0.5115,0.5125,0.5232,0.5256,0.5276,0,0,0,0,0,0,0.4594,0.4602,0.4624,0.4644,0.4656,0.4718,0.471,0.4718,0.4779,0.4785,0.4833,0.484,0.4831,0.4934,0.4941,0.5014,0.4892,0.5109,0.5118,0.5126,0.524,0.5259,0.5276,0,0,0,0,0,0.4597,0.4604,0.4668,0.4645,0.4655,0.47,0.471,0.4717,0.4775,0.4782,0.4792,0.4805,0.483,0.484,0.4938,0.5012,0.4887,0.4889,0.5115,0.5122,0.5128,0.525,0,0,0,0,0,0,0.4599,0.4607,0.4671,0.4676,0.465,0.4699,0.4707,0.4716,0.4771,0.478,0.4749,0.4752,0.4829,0.4837,0.4845,0.5014,0.4882,0.4885,0.4887,0.512,0.5125,0.513,0,0,0,0,0,0,0.4603,0.461,0.4673,0.4677,0.4683,0.4698,0.4705,0.4734,0.4771,0.4734,0.4738,0.475,0.4827,0.4835,0.4841,0.4884,0.4879,0.4881,0.4883,0.4885,0.5124,0.5128,0,0,0,0,0,0,0.4607,0.4612,0.4676,0.468,0.4685,0.4735,0.4725,0.4774,0.4763,0.4731,0.4765,0.4766,0.4825,0.4831,0.4838,0.4878,0.4883,0.4879,0.4881,0.4882,0.4883,0,0,0,0,0,0,0,0.461,0.4563,0.4648,0.4682,0.4686,0.4718,0.4719,0.472,0.4764,0.4764,0.4765,0.4766,0.4862,0.4865,0.4868,0.4874,0,0,0.4878,0.488,0,0,0,0,0,0,0,0,0.4562,0.4563,0.4648,0.4649,0.465,0.4718,0.4719,0.472,0.4764,0.4764,0.4765,0.4765,0.4863,0.4866,0.4868,0,0,0,0,0,0,0,0,0,0,0,0,0,0,0,0.4648,0.4649,0,0.4718,0.4719,0.472,0.4764,0.4764,0.4765,0.4765,0.4864,0.4866,0.4868,0,0,0,0,0,0,0,0,0,0,0,0,0,0,0,0,0,0,0,0,0,0,0,0,0,0,0,0,0,0,0,0,0,0,0,0,0,0,0,0,0,0,0,0,0,0,0,0,0,0,0,0,0,0,0,0,0,0,0,0,0,0,0,0,0,0,0,0,0]}],[{"header":{"parameterUnit":"kt","parameterCategory":2,"dx":1,"dy":1,"la1":30.253999710083008,"la2":30.299108505249023,"lo1":-89.0895004272461,"lo2":-89.04439544677734,"nx":28,"ny":28,"refTime":"2022-10-04T21:00:00:Z","depth":"2","parameterNumber":3,"parameterNumberName":"V-component_of_CURRENTS"},"data":[0.1542,0.1682,0.1781,0.2118,0.2294,0.2622,0.284,0.3281,0.341,0.3416,0.3115,0.2711,0.1776,0.0861,0.0083,-0.0432,-0.0405,-0.0502,-0.029,-0.0099,-0.0064,-0.0598,-0.0647,0,0,0,0,0,0.152,0.1622,0.1797,0.2017,0.2236,0.2328,0.2685,0.2938,0.3363,0.3365,0.3489,0.2573,0.1849,0.1081,-0.0081,-0.0729,-0.0737,-0.0841,-0.0774,-0.0749,-0.0726,-0.0772,-0.0978,-0.0979,-0.0979,-0.0979,0,0,0.1471,0.1561,0.1677,0.1859,0.2045,0.2305,0.2502,0.2761,0.3077,0.3286,0.329,0.3166,0.2352,0.1109,0.0521,-0.019,-0.0214,-0.0578,-0.0564,-0.0548,-0.0591,-0.0577,-0.0747,-0.0746,-0.0745,-0.0744,-0.0743,0,0.1411,0.1452,0.1549,0.1738,0.1886,0.2084,0.2286,0.2439,0.2597,0.279,0.3014,0.3018,0.2411,0.1732,0.0859,0.0429,-0.0029,-0.0198,0.0078,-0.0365,-0.0341,-0.0439,-0.0431,-0.0464,-0.0461,-0.0459,-0.0457,-0.0456,0.1287,0.1373,0.1522,0.1611,0.1667,0.1839,0.1971,0.2082,0.2219,0.2397,0.2488,0.238,0.2338,0.1752,0.1006,0.0402,0.0368,-0.0106,-0.0339,-0.0115,-0.0217,-0.0218,-0.0219,-0.0426,-0.043,-0.0433,-0.0435,0,0.1219,0.1251,0.1399,0.1506,0.1558,0.1678,0.1843,0.197,0.2022,0.2171,0.2177,0.2081,0.1893,0.1476,0.107,0.0653,0.0297,0.0132,0.0112,0.0004,-0.0197,-0.0202,-0.0194,-0.0198,-0.0201,-0.0204,-0.0207,0,0.1102,0.1202,0.1254,0.132,0.1494,0.1487,0.1665,0.1697,0.1756,0.1871,0.1684,0.1748,0.1318,0.1151,0.0797,0.0434,0.0521,0.0008,-0.0096,-0.0166,-0.0184,-0.012,-0.0141,0.0061,0.0061,0.0061,0.0061,0,0.0953,0.1059,0.1173,0.1193,0.1259,0.133,0.1377,0.1387,0.1449,0.1439,0.1473,0.1316,0.125,0.0985,0.0638,0.0547,0.0396,0.0203,-0.0086,-0.0096,-0.027,-0.0299,0.0061,0.0062,0.0062,0.0062,0.0062,0,0.0821,0.0877,0.1004,0.1097,0.1113,0.1163,0.1233,0.1263,0.1235,0.1193,0.1126,0.0964,0.0885,0.0671,0.0455,0.0458,0.0244,0.0072,0.0064,-0.014,-0.0337,-0.04,-0.0285,-0.0089,-0.009,-0.0091,-0.0092,0,0.0691,0.0799,0.0756,0.0871,0.092,0.0835,0.0889,0.0855,0.0799,0.0809,0.0635,0.0592,0.0396,0.036,0.0286,0.0079,0.0045,0.0035,-0.023,-0.0236,-0.0322,-0.018,-0.0267,-0.0289,-0.0102,-0.0101,-0.01,0,0.0559,0.0568,0.0574,0.0621,0.0557,0.0549,0.0584,0.0565,0.0622,0.048,0.0527,0.0356,0.0255,0.0173,0.0017,-0.0035,0.0018,-0.0189,-0.02,-0.016,-0.0068,-0.0182,-0.0187,-0.0102,-0.01,-0.0099,-0.0108,0,0.0445,0.0464,0.0484,0.0468,0.0437,0.0448,0.035,0.034,0.0263,0.0185,0.0141,-0.0044,-0.0143,-0.0202,-0.0321,-0.0286,-0.0352,-0.0479,-0.0568,-0.0443,-0.047,-0.0462,-0.0635,-0.064,-0.0645,-0.0648,0,0,0.0328,0.0342,0.0225,0.0249,0.0235,0.0085,0.0126,0.006,-0.007,-0.0078,-0.0164,-0.0346,-0.0484,-0.0506,-0.0482,-0.0579,-0.0626,-0.0577,-0.0518,-0.0502,-0.0489,-0.0505,-0.0493,-0.0656,-0.0658,-0.066,-0.0661,0,0.0266,0.0199,0.0226,0.0178,0.0097,0.0016,0.0024,-0.0105,-0.0153,-0.0202,-0.0342,-0.0412,-0.0574,-0.0655,-0.0724,-0.064,-0.0767,-0.0689,-0.0495,-0.0556,-0.0534,-0.0515,-0.0526,-0.0511,-0.0672,-0.0672,-0.0671,0,0.0165,0.0104,0.0092,0.0003,-0.0072,-0.0079,-0.022,-0.0262,-0.026,-0.0474,-0.0495,-0.0622,-0.0784,-0.0823,-0.0852,-0.0905,-0.0888,-0.0925,-0.0906,-0.0871,-0.0941,-0.0916,-0.0893,-0.1176,-0.1176,-0.1177,0,0,0.0122,0.0107,-0.0018,-0.0023,-0.0054,-0.019,-0.0235,-0.0309,-0.0415,-0.0459,-0.0575,-0.0697,-0.079,-0.0837,-0.0947,-0.0982,-0.105,-0.0974,-0.0951,-0.093,-0.0884,-0.0947,-0.0924,-0.1178,-0.1178,-0.1178,0,0,0.0088,-0.0031,-0.0078,-0.0094,-0.0174,-0.0334,-0.0345,-0.0421,-0.0516,-0.0523,-0.0692,-0.0729,-0.0773,-0.0888,-0.089,-0.0961,-0.1076,-0.1079,-0.0848,-0.0821,-0.0798,-0.0711,-0.1034,0,0,0,0,0,-0.0032,-0.0011,-0.0052,-0.0071,-0.0225,-0.0307,-0.0334,-0.045,-0.0494,-0.0495,-0.0609,-0.0708,-0.0923,-0.0928,-0.0963,-0.0911,-0.1199,-0.1195,-0.1192,-0.0906,-0.0876,-0.0851,0,0,0,0,0,0,-0.0041,-0.0062,-0.0054,-0.0203,-0.024,-0.031,-0.0414,-0.0448,-0.0496,-0.0509,-0.0684,-0.0714,-0.0836,-0.0921,-0.095,-0.0896,-0.1025,-0.1197,-0.1194,-0.1191,-0.0896,-0.0872,-0.085,0,0,0,0,0,-0.0048,-0.0066,-0.0268,-0.0207,-0.0238,-0.039,-0.0415,-0.0443,-0.0486,-0.0665,-0.0697,-0.0563,-0.0832,-0.0865,-0.0939,-0.0878,-0.1006,-0.1016,-0.1195,-0.1193,-0.1191,-0.0884,0,0,0,0,0,0,-0.0054,-0.0116,-0.0279,-0.0295,-0.0204,-0.0389,-0.0416,-0.0439,-0.0642,-0.0672,-0.0553,-0.0561,-0.0831,-0.0856,-0.0881,-0.0862,-0.099,-0.1001,-0.1007,-0.1193,-0.1192,-0.119,0,0,0,0,0,0,-0.0107,-0.0128,-0.0287,-0.0277,-0.0293,-0.0387,-0.0411,-0.0514,-0.0643,-0.0521,-0.0533,-0.0554,-0.0791,-0.085,-0.087,-0.1027,-0.0979,-0.0988,-0.0995,-0.1,-0.1192,-0.119,0,0,0,0,0,0,-0.0119,-0.0137,-0.0274,-0.0286,-0.0301,-0.0498,-0.0483,-0.0635,-0.0626,-0.0511,-0.0628,-0.0629,-0.0782,-0.0805,-0.0861,-0.101,-0.1023,-0.0979,-0.0986,-0.099,-0.0994,0,0,0,0,0,0,0,-0.0129,0.0036,-0.0174,-0.0294,-0.0307,-0.0444,-0.0449,-0.0454,-0.0626,-0.0627,-0.0628,-0.0629,-0.0922,-0.0933,-0.0944,-0.0996,0,0,-0.0978,-0.0983,0,0,0,0,0,0,0,0,0.004,0.0037,-0.0174,-0.0177,-0.018,-0.0444,-0.0449,-0.0453,-0.0626,-0.0627,-0.0628,-0.0628,-0.0925,-0.0934,-0.0943,0,0,0,0,0,0,0,0,0,0,0,0,0,0,0,-0.0175,-0.0177,0,-0.0445,-0.0449,-0.0452,-0.0627,-0.0627,-0.0628,-0.0628,-0.0927,-0.0934,-0.0942,0,0,0,0,0,0,0,0,0,0,0,0,0,0,0,0,0,0,0,0,0,0,0,0,0,0,0,0,0,0,0,0,0,0,0,0,0,0,0,0,0,0,0,0,0,0,0,0,0,0,0,0,0,0,0,0,0,0,0,0,0,0,0,0,0,0,0,0,0]}]],[[{"header":{"parameterUnit":"kt","parameterCategory":2,"dx":1,"dy":1,"la1":30.253999710083008,"la2":30.299108505249023,"lo1":-89.0895004272461,"lo2":-89.04439544677734,"nx":28,"ny":28,"refTime":"2022-10-04T21:00:00:Z","depth":"4","parameterNumber":2,"parameterNumberName":"U-component_of_CURRENTS"},"data":[0.0791,0.0894,0.0928,0.1045,0.1094,0.1286,0.1394,0.1546,0.1563,0.184,0.181,0.207,0.2022,0.2178,0.2031,0.2042,0.2063,0.2175,0.2171,0.2288,0.2305,0.232,0.2279,0,0,0,0,0,0.0845,0.0873,0.0969,0.1129,0.1315,0.1426,0.1632,0.1744,0.2041,0.2051,0.2163,0.2178,0.216,0.2167,0.2072,0.2205,0.2226,0.2085,0.2175,0.2298,0.2317,0.2271,0,0,0,0,0,0,0.0897,0.0937,0.1106,0.125,0.1446,0.1535,0.1658,0.1817,0.1969,0.229,0.2264,0.2397,0.2549,0.2442,0.2373,0.2332,0.227,0.2227,0.2248,0.2267,0.2216,0.2171,0.1995,0,0,0,0,0,0.0959,0.107,0.1173,0.1359,0.1537,0.167,0.1907,0.1954,0.2261,0.2489,0.2548,0.2587,0.2592,0.2581,0.2537,0.2431,0.2637,0.2505,0.2513,0.2463,0.2447,0.2351,0.2352,0.2389,0.2392,0.2393,0.2394,0,0.1036,0.1096,0.1354,0.1428,0.1557,0.1772,0.1903,0.2181,0.2313,0.2578,0.2631,0.2787,0.2884,0.2727,0.2758,0.2665,0.2573,0.2556,0.2503,0.2478,0.2377,0.2374,0.2369,0.2409,0.2408,0.2407,0.2406,0,0.1076,0.1203,0.1335,0.1556,0.164,0.177,0.2039,0.2152,0.24,0.2596,0.2722,0.2902,0.2973,0.3013,0.2983,0.2865,0.2771,0.265,0.2834,0.2734,0.2403,0.2392,0.2435,0.2429,0.2424,0.242,0.2417,0,0.1168,0.1249,0.1451,0.1486,0.1654,0.1782,0.1999,0.2161,0.2365,0.2502,0.2753,0.2843,0.3,0.3016,0.2956,0.2833,0.2929,0.2655,0.2556,0.2691,0.2679,0.2659,0.2643,0.2805,0.2805,0.2805,0.2806,0,0.1186,0.1312,0.1454,0.1472,0.1642,0.1763,0.1928,0.2128,0.2235,0.2534,0.2646,0.2822,0.2941,0.2934,0.2918,0.2892,0.2911,0.2814,0.2564,0.2548,0.2654,0.2637,0.2806,0.2806,0.2806,0.2806,0.2806,0,0.1214,0.1287,0.1411,0.1549,0.1588,0.1695,0.1936,0.2053,0.2246,0.2363,0.2551,0.2629,0.2814,0.2751,0.283,0.281,0.2724,0.2684,0.2678,0.2517,0.2316,0.2364,0.2515,0.2513,0.2511,0.251,0.2508,0,0.1239,0.1303,0.1363,0.148,0.1545,0.1673,0.1774,0.1928,0.2098,0.2225,0.2342,0.2481,0.2489,0.2577,0.2609,0.2603,0.261,0.2576,0.2461,0.246,0.2287,0.2393,0.2503,0.2486,0.2489,0.2491,0.2492,0,0.1208,0.1293,0.1299,0.1352,0.1494,0.1547,0.1702,0.1878,0.1968,0.2116,0.2231,0.2359,0.2421,0.2447,0.2446,0.2486,0.2563,0.2425,0.2421,0.2404,0.2552,0.2382,0.2378,0.2484,0.2487,0.249,0.2477,0,0.1216,0.1269,0.1289,0.1364,0.1431,0.1519,0.1618,0.1725,0.184,0.19,0.2064,0.211,0.2198,0.2203,0.22,0.2321,0.227,0.2191,0.2136,0.2245,0.2217,0.223,0.2048,0.2046,0.2044,0.2042,0,0,0.1213,0.1255,0.1282,0.1293,0.1352,0.1459,0.1531,0.158,0.1688,0.1757,0.178,0.191,0.1928,0.2024,0.2099,0.2058,0.2043,0.2099,0.2186,0.2202,0.2217,0.2197,0.2212,0.2039,0.2039,0.2038,0.2037,0,0.1197,0.1232,0.1261,0.1276,0.1366,0.1424,0.1462,0.1528,0.1595,0.1695,0.1708,0.1802,0.185,0.1898,0.1909,0.2022,0.1974,0.2023,0.2178,0.2169,0.2187,0.2203,0.2188,0.2202,0.2033,0.2033,0.2034,0,0.1177,0.1205,0.1218,0.1274,0.1304,0.1356,0.1351,0.1435,0.1502,0.1487,0.1608,0.1637,0.1652,0.1748,0.1797,0.1768,0.1903,0.1859,0.1869,0.1948,0.1938,0.1959,0.1978,0.173,0.1729,0.1728,0,0,0.1171,0.1193,0.1237,0.1272,0.13,0.1323,0.1349,0.1404,0.145,0.1482,0.1529,0.1585,0.1624,0.1672,0.1713,0.1772,0.1763,0.1823,0.1838,0.1849,0.1933,0.1928,0.1949,0.1725,0.1725,0.1725,0,0,0.1164,0.1198,0.1222,0.1257,0.1307,0.1313,0.1352,0.1367,0.1426,0.1473,0.1478,0.1499,0.1614,0.161,0.1566,0.171,0.165,0.1659,0.1718,0.1736,0.175,0.1846,0.1546,0,0,0,0,0,0.1165,0.1185,0.1207,0.1219,0.1249,0.1288,0.1291,0.1348,0.1359,0.1399,0.1458,0.1451,0.1614,0.1575,0.1578,0.1644,0.1682,0.169,0.1697,0.1787,0.1806,0.1822,0,0,0,0,0,0,0.1169,0.1179,0.1207,0.121,0.122,0.1284,0.1292,0.1304,0.1361,0.1375,0.1434,0.145,0.1465,0.1571,0.1575,0.1639,0.1545,0.1685,0.1692,0.1697,0.1794,0.1809,0.1822,0,0,0,0,0,0.1173,0.1182,0.1231,0.1209,0.1217,0.1288,0.1295,0.1306,0.1351,0.1392,0.141,0.1411,0.146,0.1472,0.1573,0.1638,0.1543,0.1544,0.1689,0.1694,0.1699,0.1801,0,0,0,0,0,0,0.1176,0.1155,0.1233,0.1236,0.1256,0.1289,0.1299,0.1307,0.1366,0.1384,0.1366,0.1375,0.1456,0.1466,0.1474,0.1641,0.1541,0.1542,0.1543,0.1693,0.1697,0.1701,0,0,0,0,0,0,0.1152,0.1157,0.1234,0.129,0.1299,0.129,0.1299,0.1298,0.1368,0.1334,0.1345,0.137,0.1486,0.1461,0.1468,0.1458,0.1539,0.154,0.1541,0.1542,0.1697,0.17,0,0,0,0,0,0,0.1154,0.1158,0.1288,0.1295,0.1304,0.1334,0.1291,0.1338,0.1367,0.133,0.138,0.1386,0.1482,0.1488,0.1463,0.1449,0.1456,0.1539,0.154,0.1541,0.1541,0,0,0,0,0,0,0,0.1156,0.1127,0.1232,0.13,0.1307,0.1273,0.1272,0.1271,0.1369,0.1374,0.1379,0.1384,0.1532,0.1534,0.1535,0.1442,0,0,0.1539,0.154,0,0,0,0,0,0,0,0,0.1126,0.1127,0.1232,0.1234,0.1236,0.1272,0.1272,0.1271,0.137,0.1374,0.1378,0.1382,0.1533,0.1534,0.1535,0,0,0,0,0,0,0,0,0,0,0,0,0,0,0,0.1232,0.1234,0,0.1272,0.1272,0.1271,0.137,0.1374,0.1377,0.138,0.1533,0.1534,0.1535,0,0,0,0,0,0,0,0,0,0,0,0,0,0,0,0,0,0,0,0,0,0,0,0,0,0,0,0,0,0,0,0,0,0,0,0,0,0,0,0,0,0,0,0,0,0,0,0,0,0,0,0,0,0,0,0,0,0,0,0,0,0,0,0,0,0,0,0,0]}],[{"header":{"parameterUnit":"kt","parameterCategory":2,"dx":1,"dy":1,"la1":30.253999710083008,"la2":30.299108505249023,"lo1":-89.0895004272461,"lo2":-89.04439544677734,"nx":28,"ny":28,"refTime":"2022-10-04T21:00:00:Z","depth":"4","parameterNumber":3,"parameterNumberName":"V-component_of_CURRENTS"},"data":[0.0716,0.0793,0.0825,0.0906,0.0943,0.1027,0.1056,0.1045,0.0982,0.0938,0.0683,0.0614,0.0156,0.0305,-0.0279,-0.0355,-0.0436,-0.0872,-0.0875,-0.1015,-0.1017,-0.1019,-0.0887,0,0,0,0,0,0.0733,0.0762,0.0829,0.0906,0.0993,0.1037,0.1086,0.1093,0.1093,0.0987,0.0906,0.0622,0.0186,-0.0069,-0.0278,-0.0423,-0.0739,-0.067,-0.0778,-0.1016,-0.1018,-0.0889,0,0,0,0,0,0,0.0733,0.0758,0.0846,0.0919,0.0998,0.1032,0.1048,0.1032,0.1017,0.0886,0.0804,0.0442,0.0228,-0.017,-0.0439,-0.0664,-0.0695,-0.0721,-0.0739,-0.0745,-0.0599,-0.0436,-0.0517,0,0,0,0,0,0.0728,0.0775,0.081,0.0909,0.0968,0.0994,0.1032,0.1035,0.0982,0.0929,0.0717,0.0452,0.014,-0.0253,-0.0509,-0.0761,-0.0974,-0.1017,-0.1019,-0.0956,-0.0864,-0.0858,-0.084,-0.1027,-0.1028,-0.1028,-0.1028,0,0.0729,0.0756,0.083,0.0859,0.088,0.0911,0.0929,0.0886,0.0879,0.0706,0.0675,0.0392,0.0197,-0.0272,-0.0568,-0.0921,-0.0928,-0.1023,-0.0955,-0.0865,-0.0864,-0.0843,-0.0824,-0.103,-0.103,-0.1029,-0.1029,0,0.0724,0.0749,0.0782,0.0797,0.0807,0.0824,0.0823,0.0799,0.0713,0.0649,0.0611,0.033,0.0047,-0.0233,-0.0584,-0.069,-0.0928,-0.0963,-0.0868,-0.0874,-0.0839,-0.0818,-0.1033,-0.1032,-0.1032,-0.1031,-0.1031,0,0.0709,0.0723,0.0755,0.0768,0.078,0.074,0.0728,0.0655,0.0562,0.052,0.0341,0.0233,-0.0069,-0.0283,-0.0467,-0.069,-0.0766,-0.0782,-0.0802,-0.0741,-0.0721,-0.0789,-0.0773,-0.0916,-0.0914,-0.0913,-0.0912,0,0.0697,0.0697,0.0727,0.0718,0.0685,0.0675,0.0655,0.0547,0.0508,0.0353,0.0304,0.007,-0.0027,-0.0236,-0.0439,-0.041,-0.0739,-0.0724,-0.0746,-0.074,-0.0775,-0.0761,-0.0911,-0.091,-0.091,-0.0909,-0.0909,0,0.0665,0.0679,0.0699,0.0673,0.0668,0.0657,0.058,0.0533,0.0389,0.0328,0.02,0.0107,-0.0077,-0.0079,-0.0371,-0.029,-0.0387,-0.0486,-0.0495,-0.0472,-0.0434,-0.0465,-0.0558,-0.0554,-0.0551,-0.0548,-0.0546,0,0.0656,0.067,0.0656,0.0652,0.0653,0.0596,0.055,0.0475,0.0408,0.0314,0.0182,0.0095,0.0053,0.0012,-0.0107,-0.0254,-0.0341,-0.0226,-0.0457,-0.0464,-0.0384,-0.0463,-0.0327,-0.0503,-0.0508,-0.0512,-0.0515,0,0.0642,0.0643,0.0647,0.0644,0.0607,0.0589,0.0538,0.0469,0.0422,0.0335,0.025,0.0119,0.0068,0.0005,-0.0056,-0.0157,-0.0276,-0.0171,-0.0178,-0.0225,-0.0493,-0.0418,-0.0436,-0.0304,-0.0309,-0.0312,-0.0485,0,0.0626,0.063,0.0635,0.0615,0.0595,0.0583,0.0529,0.0487,0.0454,0.0395,0.0283,0.0186,0.0077,0.0052,0.0014,-0.0111,-0.0108,-0.0125,-0.0138,-0.0181,-0.0246,-0.0269,-0.0009,-0.0009,-0.001,-0.0011,0,0,0.0615,0.0619,0.0602,0.0594,0.0581,0.0543,0.0534,0.0488,0.0415,0.0373,0.0377,0.0199,0.0138,0.0017,0.0007,-0.0016,-0.0067,-0.0015,-0.0143,-0.0157,-0.017,-0.0235,-0.0256,-0.0012,-0.0012,-0.0012,-0.0013,0,0.0606,0.0602,0.0609,0.0582,0.0556,0.0527,0.0527,0.0476,0.0446,0.0383,0.0329,0.0251,0.0161,0.0081,0.0031,-0.0014,-0.0067,-0.0016,-0.003,-0.0144,-0.0157,-0.0169,-0.0234,-0.0252,-0.0014,-0.0014,-0.0014,0,0.0587,0.0576,0.0575,0.0547,0.0526,0.0506,0.0482,0.0462,0.0431,0.0369,0.0317,0.0257,0.0169,0.01,0.0066,0.0064,-0.0073,-0.0009,-0.0007,-0.0038,-0.0159,-0.0172,-0.0185,-0.0028,-0.0028,-0.0027,0,0,0.0578,0.058,0.0542,0.054,0.0535,0.049,0.0473,0.0449,0.04,0.038,0.0325,0.0258,0.0186,0.0151,0.0084,0.0021,-0.0046,-0.0006,-0.0006,-0.0005,-0.0035,-0.0154,-0.0167,-0.0026,-0.0026,-0.0026,0,0,0.0568,0.0543,0.0533,0.0532,0.0499,0.0446,0.0445,0.0419,0.0368,0.0369,0.0302,0.0284,0.0218,0.0173,0.0198,0.0084,0.0077,0.007,0.0124,0.0124,0.0125,0.0107,0.0166,0,0,0,0,0,0.0539,0.0547,0.0538,0.0534,0.0488,0.045,0.044,0.0413,0.0411,0.0402,0.0347,0.0321,0.0171,0.0192,0.0172,0.0152,-0.0009,-0.0012,-0.0015,0.0039,0.0039,0.004,0,0,0,0,0,0,0.0537,0.0532,0.0538,0.049,0.0479,0.045,0.0435,0.0426,0.0411,0.041,0.0332,0.0318,0.0271,0.0198,0.0181,0.0163,0.0172,-0.001,-0.0013,-0.0015,0.0039,0.004,0.004,0,0,0,0,0,0.0535,0.0531,0.0473,0.0488,0.0479,0.0441,0.0436,0.0428,0.0413,0.0341,0.0329,0.0398,0.0272,0.0254,0.0188,0.0172,0.0184,0.0177,-0.0012,-0.0014,-0.0016,0.0039,0,0,0,0,0,0,0.0534,0.0508,0.047,0.0465,0.05,0.0442,0.0435,0.0431,0.0343,0.0333,0.0403,0.0403,0.0272,0.0258,0.0245,0.0179,0.0193,0.0187,0.0183,-0.0014,-0.0015,-0.0016,0,0,0,0,0,0,0.051,0.0504,0.0467,0.0484,0.048,0.0443,0.0437,0.0369,0.0341,0.0408,0.0407,0.0404,0.0287,0.0261,0.025,0.0145,0.02,0.0194,0.019,0.0187,-0.0015,-0.0016,0,0,0,0,0,0,0.0506,0.0501,0.0485,0.0482,0.0479,0.0415,0.038,0.0329,0.0378,0.0411,0.0381,0.0382,0.029,0.0278,0.0254,0.0154,0.0148,0.02,0.0196,0.0193,0.0191,0,0,0,0,0,0,0,0.0503,0.0555,0.0507,0.048,0.0477,0.0419,0.0417,0.0415,0.0379,0.038,0.0381,0.0381,0.0235,0.0228,0.0222,0.0161,0,0,0.0201,0.0198,0,0,0,0,0,0,0,0,0.0555,0.0555,0.0507,0.0506,0.0505,0.0419,0.0417,0.0415,0.0379,0.038,0.038,0.0381,0.0233,0.0228,0.0222,0,0,0,0,0,0,0,0,0,0,0,0,0,0,0,0.0507,0.0506,0,0.0419,0.0417,0.0416,0.0379,0.038,0.038,0.0381,0.0232,0.0227,0.0223,0,0,0,0,0,0,0,0,0,0,0,0,0,0,0,0,0,0,0,0,0,0,0,0,0,0,0,0,0,0,0,0,0,0,0,0,0,0,0,0,0,0,0,0,0,0,0,0,0,0,0,0,0,0,0,0,0,0,0,0,0,0,0,0,0,0,0,0,0]}]]]